Oxnard, CA

9:38 PM PDT on May 26, 2018 (GMT -0700)
Oxnard

Weather History for KOXR - September, 2013

Change the Weather History Date:

Monday, September 9, 2013

  Actual Average Record
Temperature  
Mean Temperature 60 °F -  
Max Temperature 64 °F 75 °F 94 °F (1984)
Min Temperature 57 °F 59 °F 49 °F (1964)
Degree Days  
Heating Degree Days 5    
Growing Degree Days 10 (Base 50)    
Moisture  
Dew Point 57 °F    
Average Humidity 96    
Maximum Humidity 100    
Minimum Humidity 81    
Precipitation  
Precipitation 0.00 in - - ()
Sea Level Pressure  
Sea Level Pressure 29.79 in    
Wind  
Wind Speed 6 mph (WNW)    
Max Wind Speed 15 mph    
Max Gust Speed -    
Visibility 6 miles    
Events      
Averages and records for this station are not official NWS values.
T = Trace of Precipitation, MM = Missing Value Source: NWS Daily Summary

Daily Weather History Graph

Daily Weather History Graph

Search for Another Location

Airport or City:

Astronomy

Sep. 09, 2013 Rise Set
Actual Time 6:36 AM PDT 7:11 PM PDT
Civil Twilight 6:10 AM PDT 7:36 PM PDT
Nautical Twilight 5:41 AM PDT 8:06 PM PDT
Astronomical Twilight 5:10 AM PDT 8:36 PM PDT
Moon 10:49 AM PDT (9/9) 9:46 PM PDT (9/9)
Length of Visible Light 13h 25m
Length of Day
12h 35m
Waxing Crescent, 20% of the Moon is Illuminated
Sep 9
Waxing Crescent
Sep 12
First Quarter
Sep 19
Full
Sep 26
Last Quarter
Oct 4
New

Hourly Weather History & Observations

Time (PDT) Temp. Dew Point Humidity Pressure Visibility Wind Dir Wind Speed Gust Speed Precip Events Conditions
12:51 AM 57.9 °F 57.9 °F 100% 29.80 in 5.0 mi NW 5.8 mph - N/A   Overcast
1:29 AM 57.2 °F 57.2 °F 100% 29.80 in 6.0 mi NW 3.5 mph - N/A   Partly Cloudy
1:51 AM 57.9 °F 57.0 °F 97% 29.79 in 6.0 mi WNW 5.8 mph - N/A   Mostly Cloudy
2:51 AM 57.9 °F 57.9 °F 100% 29.78 in 5.0 mi WNW 6.9 mph - N/A   Overcast
3:26 AM 57.2 °F 57.2 °F 100% 29.78 in 4.0 mi NW 5.8 mph - N/A   Overcast
3:51 AM 57.9 °F 57.9 °F 100% 29.78 in 2.0 mi WNW 5.8 mph - N/A   Overcast
3:58 AM 57.2 °F 57.2 °F 100% 29.78 in 1.8 mi WNW 6.9 mph - N/A   Overcast
4:51 AM 57.0 °F 57.0 °F 100% 29.78 in 0.8 mi NW 3.5 mph - N/A   Mist
5:11 AM 57.2 °F 57.2 °F 100% 29.79 in 1.5 mi North 3.5 mph - N/A   Overcast
5:51 AM 57.0 °F 57.0 °F 100% 29.79 in 2.0 mi WNW 4.6 mph - N/A   Overcast
5:58 AM 57.2 °F 57.2 °F 100% 29.79 in 1.2 mi Calm Calm - N/A   Overcast
6:15 AM 57.2 °F 57.2 °F 100% 29.79 in 2.0 mi WNW 5.8 mph - N/A   Overcast
6:31 AM 57.2 °F 57.2 °F 100% 29.79 in 1.5 mi West 5.8 mph - N/A   Overcast
6:51 AM 57.0 °F 57.0 °F 100% 29.80 in 1.8 mi WNW 4.6 mph - N/A   Overcast
7:51 AM 57.0 °F 57.0 °F 100% 29.81 in 3.0 mi WNW 8.1 mph - N/A   Overcast
7:54 AM 57.2 °F 57.2 °F 100% 29.81 in 4.0 mi WNW 8.1 mph - N/A   Overcast
8:51 AM 57.9 °F 57.0 °F 97% 29.82 in 7.0 mi West 8.1 mph - N/A   Overcast
9:51 AM 59.0 °F 57.9 °F 96% 29.82 in 8.0 mi West 8.1 mph - N/A   Overcast
10:51 AM 61.0 °F 57.9 °F 90% 29.83 in 10.0 mi West 6.9 mph - N/A   Overcast
11:51 AM 61.0 °F 57.9 °F 90% 29.82 in 10.0 mi West 9.2 mph - N/A   Overcast
12:51 PM 61.0 °F 57.0 °F 87% 29.81 in 9.0 mi West 12.7 mph - N/A   Overcast
1:51 PM 62.1 °F 57.9 °F 86% 29.80 in 9.0 mi WNW 11.5 mph - N/A   Overcast
2:51 PM 63.0 °F 57.0 °F 81% 29.78 in 10.0 mi WNW 11.5 mph - N/A   Overcast
3:51 PM 61.0 °F 57.0 °F 87% 29.77 in 9.0 mi West 15.0 mph - N/A   Overcast
4:51 PM 60.1 °F 57.0 °F 90% 29.76 in 8.0 mi West 12.7 mph - N/A   Overcast
5:51 PM 61.0 °F 57.9 °F 90% 29.76 in 10.0 mi WNW 10.4 mph - N/A   Overcast
6:51 PM 60.1 °F 57.9 °F 93% 29.76 in 9.0 mi West 11.5 mph - N/A   Overcast
7:51 PM 60.1 °F 57.9 °F 93% 29.77 in 10.0 mi NW 4.6 mph - N/A   Overcast
8:51 PM 60.1 °F 57.9 °F 93% 29.78 in 8.0 mi West 6.9 mph - N/A   Overcast
9:51 PM 59.0 °F 57.9 °F 96% 29.80 in 5.0 mi Calm Calm - N/A   Overcast
10:51 PM 59.0 °F 57.9 °F 96% 29.81 in 5.0 mi WSW 3.5 mph - N/A   Overcast
11:51 PM 59.0 °F 57.9 °F 96% 29.82 in 8.0 mi Calm Calm - N/A   Overcast